This is the latest recevied weather packets stored in our database for station/object FW0727. If no packets are shown the sender has not sent any weather packets the latest 10 day(s).
| Time | Temp. | Humidity | Pressure | Rain* | Wind** | Luminosity | Snow |
|---|---|---|---|---|---|---|---|
| 1777194536 | 24.44° C | 20% | 1007.6 hPa | - | - | - | - |
| 1777194190 | 24.44° C | 20% | 1007.6 hPa | - | - | - | - |
| 1777193514 | 24.44° C | 21% | 1007.8 hPa | - | - | - | - |
| 1777193170 | 23.33° C | 21% | 1007.7 hPa | - | - | - | - |
| 1777192817 | 23.89° C | 21% | 1007.6 hPa | - | - | - | - |
| 1777192472 | 23.89° C | 21% | 1007.8 hPa | - | - | - | - |
| 1777192127 | 23.89° C | 21% | 1007.8 hPa | - | - | - | - |
| 1777191774 | 23.89° C | 24% | 1007.7 hPa | - | - | - | - |
| 1777191428 | 23.33° C | 22% | 1007.7 hPa | - | - | - | - |
| 1777191083 | 23.33° C | 22% | 1007.7 hPa | - | - | - | - |
| 1777190737 | 22.78° C | 22% | 1007.8 hPa | - | - | - | - |
| 1777190392 | 22.78° C | 22% | 1007.8 hPa | - | - | - | - |
| 1777190047 | 22.78° C | 22% | 1007.8 hPa | - | - | - | - |
| 1777189702 | 22.78° C | 24% | 1007.9 hPa | - | - | - | - |
| 1777189349 | 22.78° C | 24% | 1008 hPa | - | - | - | - |
| 1777189004 | 22.22° C | 22% | 1008 hPa | - | - | - | - |
| 1777188659 | 22.22° C | 26% | 1008 hPa | - | - | - | - |
| 1777188314 | 21.67° C | 27% | 1008.2 hPa | - | - | - | - |
| 1777187961 | 21.11° C | 28% | 1008.3 hPa | - | - | - | - |
| 1777187608 | 21.11° C | 29% | 1008.3 hPa | - | - | - | - |
| 1777187256 | 20.56° C | 28% | 1008.3 hPa | - | - | - | - |
| 1777186903 | 20.56° C | 30% | 1008.4 hPa | - | - | - | - |
| 1777186221 | 20° C | 30% | 1008.3 hPa | - | - | - | - |
| 1777185869 | 19.44° C | 31% | 1008.5 hPa | - | - | - | - |
| 1777185186 | 18.89° C | 33% | 1008.7 hPa | - | - | - | - |
* Rain since midnight (hover to see other rain measurements)
** Current wind speed in m/s (hover to see current wind gust speed)